Location: Milton Keynes
(52.0316°N, 0.7531°W)
Time: 07:16:58
(UTC+00:00)

ISS - Pass Details

Date: 28 January 2019
Orbit: 403 x 411 km, 51.6° (Epoch: 18 February)

Event Time Altitude Azimuth Distance (km) Brightness Sun altitude
Rises 19:41:19 0° 268° (W) 2,338 1.3 -27.2°
Reaches altitude 10° 19:43:24 10° 268° (W) 1,478 0.0 -27.6°
Enters shadow 19:44:35 20° 267° (W) 1,006 -1.1 -27.7°
